OE5HMR-13 Weather Reports


Display with metric or nautical units.
time (UTC)temp
F
wind
direction
speed
MPH
gust
MPH
rain 1hr
in
rain 24hr
in
rain mn
in
humidity
%
barometer
mb
20260506061528 52 0.0 0.0 0.00 0.00 0.00 79 1008.0
20260506060530 52 0.0 0.0 0.00 0.00 0.00 80 1008.0
20260506050535 50 0.0 0.0 0.00 0.00 0.00 82 1008.0
20260506044611 49 0.0 0.0 0.00 0.00 0.00 82 1008.0
20260506043548 49 0.0 0.0 0.00 0.00 0.00 82 1008.0
20260506042540 49 0.0 0.0 0.00 0.00 0.00 83 1008.0
20260506041532 49 0.0 0.0 0.00 0.00 0.00 83 1008.0
20260506040539 48 0.0 0.0 0.00 0.00 0.00 82 1008.0
20260506035531 48 0.0 0.0 0.00 0.00 0.00 82 1008.0
20260506034534 48 0.0 0.0 0.00 0.00 0.00 82 1008.0
20260506033549 47 0.0 0.0 0.00 0.00 0.00 82 1008.0
20260506032535 47 0.0 0.0 0.00 0.00 0.00 79 1008.0
20260506031551 47 0.0 0.0 0.00 0.00 0.00 79 1008.0
20260506030632 47 0.0 0.0 0.00 0.00 0.00 78 1008.0
20260506025534 47 0.0 0.0 0.00 0.00 0.00 76 1006.9
20260506024535 48 0.0 0.0 0.00 0.00 0.00 76 1007.0
20260506023527 48 0.0 0.0 0.00 0.00 0.00 75 1008.0
20260506022537 49 0.0 0.0 0.00 0.00 0.00 75 1008.0
20260506021527 49 0.0 0.0 0.00 0.00 0.00 77 1008.0
20260506020541 49 0.0 0.0 0.00 0.00 0.00 78 1008.0
20260506014525 50 0.0 0.0 0.00 0.00 0.00 76 1008.0
20260506013530 50 0.0 0.0 0.00 0.00 0.00 76 1008.0
20260506012534 51 0.0 0.0 0.00 0.00 0.00 76 1008.0
20260506011529 51 0.0 0.0 0.00 0.00 0.00 76 1008.0
20260506010612 51 0.0 0.0 0.00 0.00 0.00 76 1008.0
20260506005539 51 0.0 0.0 0.00 0.00 0.00 78 1008.0
20260506004524 51 0.0 0.0 0.00 0.00 0.00 78 1008.0
20260506003538 51 0.0 0.0 0.00 0.00 0.00 76 1008.0
20260506002536 51 0.0 0.0 0.00 0.00 0.00 77 1008.0
20260506001550 52 0.0 0.0 0.00 0.00 0.00 76 1008.0
20260506000527 51 0.0 0.0 0.00 0.00 0.00 76 1008.0
20260505235549 51 0.0 0.0 0.00 0.00 0.00 75 1008.0
20260505234524 51 0.0 0.0 0.00 0.00 0.00 75 1008.0
20260505233553 51 0.0 0.0 0.00 0.00 0.00 73 1008.0
20260505232525 50 0.0 0.0 0.00 0.00 0.00 72 1008.0
20260505231631 51 0.0 0.0 0.00 0.00 0.00 72 1008.0
20260505230544 50 0.0 0.0 0.00 0.00 0.00 72 1008.0
20260505225525 50 0.0 0.0 0.00 0.00 0.00 72 1006.9
20260505224531 51 0.0 0.0 0.00 0.00 0.00 73 1006.9
20260505223523 51 0.0 0.0 0.00 0.00 0.00 73 1006.9
20260505222529 51 0.0 0.0 0.00 0.00 0.00 73 1006.9
20260505221528 52 0.0 0.0 0.00 0.00 0.00 73 1006.9
20260505220540 52 0.0 0.0 0.00 0.00 0.00 73 1006.9
20260505215529 53 0.0 0.0 0.00 0.00 0.00 72 1006.9
20260505214527 53 0.0 0.0 0.00 0.00 0.00 71 1006.9
20260505213527 54 0.0 0.0 0.00 0.00 0.00 70 1006.9
20260505212538 54 0.0 0.0 0.00 0.00 0.00 70 1006.9
20260505211537 54 0.0 0.0 0.00 0.00 0.00 70 1006.9
20260505210527 54 0.0 0.0 0.00 0.00 0.00 70 1006.9
20260505205525 54 0.0 0.0 0.00 0.00 0.00 70 1006.9
20260505204525 55 0.0 0.0 0.00 0.00 0.00 69 1006.9
20260505203528 55 0.0 0.0 0.00 0.00 0.00 68 1006.9
20260505202607 55 0.0 0.0 0.00 0.00 0.00 67 1006.9
20260505201528 56 0.0 0.0 0.00 0.00 0.00 65 1006.9
20260505200523 57 0.0 0.0 0.00 0.00 0.00 63 1006.9
20260505195545 57 0.0 0.0 0.00 0.00 0.00 62 1006.9
20260505194540 58 0.0 0.0 0.00 0.00 0.00 59 1006.9
20260505193528 58 0.0 0.0 0.00 0.00 0.00 57 1006.9
20260505192545 59 0.0 0.0 0.00 0.00 0.00 54 1006.9
20260505191611 60 0.0 0.0 0.00 0.00 0.00 52 1006.8
20260505190536 61 0.0 0.0 0.00 0.00 0.00 47 1005.8
20260505185541 62 0.0 0.0 0.00 0.00 0.00 41 1004.7
20260505184528 63 0.0 0.0 0.00 0.00 0.00 36 1004.7
20260505183534 64 0.0 0.0 0.00 0.00 0.00 34 1004.7
20260505182531 65 0.0 0.0 0.00 0.00 0.00 33 1004.7
20260505181535 66 0.0 0.0 0.00 0.00 0.00 33 1004.7
20260505180535 67 0.0 0.0 0.00 0.00 0.00 32 1004.7
20260505175544 68 0.0 0.0 0.00 0.00 0.00 32 1004.7
20260505174533 68 0.0 0.0 0.00 0.00 0.00 31 1004.9
20260505173525 69 0.0 0.0 0.00 0.00 0.00 31 1005.8
20260505172527 70 0.0 0.0 0.00 0.00 0.00 30 1005.8
20260505171547 70 0.0 0.0 0.00 0.00 0.00 30 1005.7
20260505170525 71 0.0 0.0 0.00 0.00 0.00 30 1004.7
20260505165607 72 0.0 0.0 0.00 0.00 0.00 30 1005.8
20260505164526 72 0.0 0.0 0.00 0.00 0.00 29 1005.8
20260505163524 73 0.0 0.0 0.00 0.00 0.00 29 1005.8
20260505162531 73 0.0 0.0 0.00 0.00 0.00 29 1005.8
20260505161523 73 0.0 0.0 0.00 0.00 0.00 28 1005.8
20260505160531 73 0.0 0.0 0.00 0.00 0.00 30 1005.8
20260505152534 74 0.0 0.0 0.00 0.00 0.00 28 1005.8
20260505151527 73 0.0 0.0 0.00 0.00 0.00 28 1005.8
20260505150525 73 0.0 0.0 0.00 0.00 0.00 29 1005.8
20260505140525 75 0.0 0.0 0.00 0.00 0.00 28 1006.9
20260505124606 75 0.0 0.0 0.00 0.00 0.00 28 1007.0
20260505123524 76 0.0 0.0 0.00 0.00 0.00 28 1008.0
20260505122609 76 0.0 0.0 0.00 0.00 0.00 29 1008.0
20260505121521 76 0.0 0.0 0.00 0.00 0.00 29 1008.0
20260505120527 76 0.0 0.0 0.00 0.00 0.00 30 1008.0
20260505115543 76 0.0 0.0 0.00 0.00 0.00 31 1008.0
20260505114535 75 0.0 0.0 0.00 0.00 0.00 31 1008.0
20260505113529 75 0.0 0.0 0.00 0.00 0.00 32 1008.0
20260505112522 75 0.0 0.0 0.00 0.00 0.00 33 1008.0
20260505111525 75 0.0 0.0 0.00 0.00 0.00 33 1008.0
20260505110602 75 0.0 0.0 0.00 0.00 0.00 35 1008.0
20260505101529 73 0.0 0.0 0.00 0.00 0.00 36 1008.0
20260505100525 73 0.0 0.0 0.00 0.00 0.00 37 1008.0
20260505095530 72 0.0 0.0 0.00 0.00 0.00 36 1008.0
20260505094536 72 0.0 0.0 0.00 0.00 0.00 36 1008.0
20260505093530 72 0.0 0.0 0.00 0.00 0.00 36 1008.0
20260505092529 72 0.0 0.0 0.00 0.00 0.00 35 1008.0
20260505091528 72 0.0 0.0 0.00 0.00 0.00 34 1008.0
20260505090544 71 0.0 0.0 0.00 0.00 0.00 33 1008.0
20260505085528 71 0.0 0.0 0.00 0.00 0.00 37 1009.1
20260505084534 70 0.0 0.0 0.00 0.00 0.00 37 1009.1
20260505083538 70 0.0 0.0 0.00 0.00 0.00 38 1009.1
20260505082530 70 0.0 0.0 0.00 0.00 0.00 41 1009.1
20260505081544 69 0.0 0.0 0.00 0.00 0.00 42 1009.1
20260505080546 69 0.0 0.0 0.00 0.00 0.00 44 1009.1
20260505075603 68 0.0 0.0 0.00 0.00 0.00 45 1009.1
20260505074534 68 0.0 0.0 0.00 0.00 0.00 48 1009.1
20260505073525 67 0.0 0.0 0.00 0.00 0.00 49 1009.1
20260505072533 66 0.0 0.0 0.00 0.00 0.00 50 1009.1
20260505071546 66 0.0 0.0 0.00 0.00 0.00 52 1009.1
20260505070523 65 0.0 0.0 0.00 0.00 0.00 53 1009.1